Location: Forst
(46.9333°N, 15.4333°E)
Time: 06:35:06
(UTC+00:00)

Lacrosse 5 rocket - Pass Details

Date: 25 April 2021
Orbit: 460 x 634 km, 57.0° (Epoch: 12 May)

Event Time Altitude Azimuth Distance (km) Brightness Sun altitude
Rises 18:45:09 0° 303° (WNW) 2,705 7.4 -7.7°
Reaches altitude 10° 18:47:41 10° 318° (NW) 1,845 5.4 -8.1°
Maximum altitude 18:51:04 23° 12° (NNE) 1,243 3.3 -8.6°
Drops below altitude 10° 18:54:36 10° 66° (ENE) 1,929 3.8 -9.1°
Enters shadow 18:56:21 - 76° (ENE) 2,516 4.3 -9.4°
